TimeEST,TemperatureF,Dew PointF,Humidity,Sea Level PressureIn,VisibilityMPH,Wind Direction,Wind SpeedMPH,Gust SpeedMPH,PrecipitationIn,Events,Conditions,WindDirDegrees,DateUTC
12:04 AM,23.0,21.2,93,30.04,0.5,East,3.5,-,N/A,Fog,Light Freezing Fog,80,2014-02-19 05:04:00
12:14 AM,21.2,21.2,100,30.04,0.2,East,4.6,-,N/A,Fog,Light Freezing Fog,90,2014-02-19 05:14:00
12:30 AM,21.2,19.4,93,30.05,1.0,ESE,4.6,-,N/A,,Clear,110,2014-02-19 05:30:00
12:53 AM,24.1,23.0,96,30.09,2.5,South,4.6,-,N/A,,Clear,170,2014-02-19 05:53:00
1:08 AM,24.8,21.2,86,30.07,3.0,Calm,Calm,-,N/A,,Clear,0,2014-02-19 06:08:00
1:23 AM,21.2,19.4,93,30.06,2.0,ESE,3.5,-,N/A,,Clear,110,2014-02-19 06:23:00
1:41 AM,19.4,17.6,93,30.04,1.8,East,6.9,-,N/A,,Clear,80,2014-02-19 06:41:00
1:53 AM,19.9,18.0,92,30.04,1.8,East,6.9,-,N/A,,Clear,80,2014-02-19 06:53:00
2:07 AM,21.2,19.4,93,30.03,2.0,NE,3.5,-,N/A,,Clear,50,2014-02-19 07:07:00
2:27 AM,24.8,21.2,86,30.03,3.0,East,3.5,-,N/A,,Clear,80,2014-02-19 07:27:00
2:53 AM,24.1,21.9,91,30.02,4.0,ENE,4.6,-,N/A,,Clear,70,2014-02-19 07:53:00
3:53 AM,25.0,21.0,85,29.96,4.0,East,10.4,-,N/A,,Clear,90,2014-02-19 08:53:00
4:53 AM,27.0,21.9,81,29.95,5.0,ENE,5.8,-,N/A,,Haze,70,2014-02-19 09:53:00
6:53 AM,28.9,24.1,82,29.86,5.0,East,6.9,-,N/A,,Haze,80,2014-02-19 11:53:00
7:53 AM,32.0,26.1,79,29.85,5.0,ENE,6.9,-,N/A,,Haze,60,2014-02-19 12:53:00
8:31 AM,32.0,26.6,80,29.87,2.0,North,4.6,-,0.02,Rain,Rain,10,2014-02-19 13:31:00
8:42 AM,32.0,28.4,87,29.86,1.5,NNE,6.9,-,0.05,,Overcast,30,2014-02-19 13:42:00
8:53 AM,33.1,28.9,85,29.86,1.8,NE,5.8,-,0.07,Rain,Rain,50,2014-02-19 13:53:00
9:07 AM,33.8,30.2,87,29.86,2.0,East,3.5,-,0.03,Rain,Rain,90,2014-02-19 14:07:00
9:17 AM,32.0,30.2,93,29.84,1.5,ESE,6.9,-,0.05,,Overcast,120,2014-02-19 14:17:00
9:53 AM,32.0,30.9,96,29.85,1.2,East,3.5,-,0.16,,Overcast,90,2014-02-19 14:53:00
10:18 AM,33.8,30.2,87,29.82,1.0,Calm,Calm,-,0.02,Rain,Light Rain,0,2014-02-19 15:18:00
10:53 AM,34.0,32.0,92,29.82,1.8,East,3.5,-,0.03,,Mostly Cloudy,90,2014-02-19 15:53:00
11:53 AM,35.1,33.1,92,29.79,3.0,ESE,3.5,-,N/A,,Partly Cloudy,120,2014-02-19 16:53:00
12:53 PM,37.9,33.1,83,29.75,4.0,Calm,Calm,-,N/A,,Haze,0,2014-02-19 17:53:00
1:53 PM,39.0,33.1,79,29.73,5.0,Calm,Calm,-,N/A,,Haze,0,2014-02-19 18:53:00
2:53 PM,41.0,33.1,73,29.71,5.0,Calm,Calm,-,N/A,,Haze,0,2014-02-19 19:53:00
4:53 PM,39.9,33.1,77,29.77,4.0,Calm,Calm,-,N/A,,Haze,0,2014-02-19 21:53:00
5:53 PM,39.0,32.0,76,29.81,4.0,West,3.5,-,N/A,,Haze,280,2014-02-19 22:53:00
6:53 PM,37.0,32.0,82,29.88,5.0,West,4.6,-,N/A,,Haze,270,2014-02-19 23:53:00
7:53 PM,37.9,30.9,76,29.94,5.0,WNW,8.1,-,N/A,,Haze,290,2014-02-20 00:53:00
8:53 PM,43.0,28.9,58,29.99,10.0,West,17.3,26.5,N/A,,Clear,280,2014-02-20 01:53:00
9:53 PM,42.1,28.9,60,30.05,10.0,WNW,13.8,-,N/A,,Clear,290,2014-02-20 02:53:00
10:53 PM,39.0,28.0,65,30.08,10.0,WNW,13.8,-,N/A,,Clear,290,2014-02-20 03:53:00
11:53 PM,36.0,26.1,67,30.11,10.0,West,10.4,-,N/A,,Clear,270,2014-02-20 04:53:00